Voltar ao catálogo

THORAD DELTA 1 DEB

AtivoSSO
NORAD 8596·DEBRIS·🇺🇸 United States

Lançado Nov 15, 1974 de Vandenberg Space Force Base

Loading…

Próximas Passagens (próximas 24 horas)

TLE

AtualizadoSource: Space-Track

Época: Sep 13, 2026, 13:47 UTC

1  8596U 74089DK  26256.57475111  .00000001  00000-0  23810-3 0  9996
2  8596 101.7543 130.1906 0087962 133.6628 294.2551 12.68844590398030

Acompanhe THORAD DELTA 1 DEB em tempo real com AllMySat

Download on the App Store